Regional Weather Roundup
Issued by NWS San Diego, CA

Home | Current Version | Previous Version | Text Only | Print | Product List | Glossary On
Versions: 1 2 3 4 5 6 7 8 9 10 11 12 13 14 15 16 17 18 19 20 21 22 23 24 25 26 27 28 29 30 31 32 33 34 35 36 37 38 39 40 41 42 43 44 45 46 47 48 49 50
000
ASUS46 KSGX 291911
RWRSGX

SAN DIEGO HOURLY WEATHER ROUNDUP
NATIONAL WEATHER SERVICE SAN DIEGO CA
1200 PM PDT SAT AUG 29 2015

NOTE: "FAIR" INDICATES FEW OR NO CLOUDS BELOW 12,000 FEET WITH NO
SIGNIFICANT WEATHER AND/OR OBSTRUCTIONS TO VISIBILITY.

CAZ042-043-060-061-PZZ750-775-292000-

GREATER SAN DIEGO AREA

CITY           SKY/WX    TMP DP  RH WIND       PRES   REMARKS
LINDBERGH FLD  MOSUNNY   85  66  53 NW7       29.91S
POINT LOMA       N/A     79  71  75 W17         N/A
NATIONAL CITY    N/A     85  71  62 S3        29.90F
CHULA VISTA      N/A     85  73  66 W3        29.83S
IMPERIAL BEACH SUNNY    N/A N/A N/A W12       29.91S
BROWN FIELD    SUNNY     88  65  46 W10       29.91S
MIRAMAR MCAS   MOSUNNY   95  52  23 NW8       29.91S
MONTGOMERY FLD SUNNY     90  63  40 SW8       29.91S

$$

NORTH SAN DIEGO COUNTY

CITY           SKY/WX    TMP DP  RH WIND       PRES   REMARKS
CAMP PENDLETON   N/A     90  59  35 SW8       29.89S
OCEANSIDE AP   SUNNY     85  65  51 W10       29.89S
OCEANSIDE HBR    N/A     77  73  88 W7        29.92F
VISTA            N/A     89  64  43 SW6       29.88S
CARLSBAD       SUNNY     82  65  56 W9        29.90F
DEL MAR          N/A     80  73  79 CALM      29.92F
FALLBROOK        N/A     95  53  24 W5        29.87S
ESCONDIDO        N/A     96  66  37 W9        29.89F HX  98
SAN MARCOS       N/A     90  64  42 W7        29.87S
POWAY            N/A     96  62  31 S9        29.88F HX  97

$$

EAST SAN DIEGO COUNTY

CITY           SKY/WX    TMP DP  RH WIND       PRES   REMARKS
RAMONA         SUNNY     97  50  20 NW10      29.94F
SANTEE LAKES     N/A     97  59  28 W5        29.86F HX  96
LA MESA          N/A     92  60  34 CALM      29.82F
JAMUL            N/A     94  61  33 NW5       29.86F
DESCANSO N       N/A     92  45  19 W2        29.77F
CAMPO            N/A     97  44  16 W14       29.97S

$$

ORANGE COUNTY AND THE LOS ANGELES BASIN

CITY           SKY/WX    TMP DP  RH WIND       PRES   REMARKS
JOHN WAYNE AP  SUNNY     87  64  46 SW7       29.90S
LAGUNA BEACH     N/A     82  73  74 S5        29.86F
LAKE FOREST FR   N/A     92  53  26 CALM      29.78F
SANTA ANA        N/A     93  67  42 CALM      29.84F HX  96
HUNTINGTON BCH   N/A     83  73  71 SW5       29.92F
LOS ALAMITOS   SUNNY     88  61  40 S8        29.90S
FULLERTON      SUNNY     92  62  36 VRB5      29.88F
LONG BEACH     SUNNY     86  62  44 S8        29.90S
L.A. AP        SUNNY     82  67  60 W12       29.91S
L.A. DOWNTOWN  SUNNY     93  62  35 CALM      29.88F

$$

THE INLAND EMPIRE

CITY           SKY/WX    TMP DP  RH WIND       PRES   REMARKS
CORONA         SUNNY     92  58  31 W7        29.91F
CHINO          SUNNY     96  55  25 VRB5      29.91F
ONTARIO        MOSUNNY   95  51  22 VRB5      29.92F
SAN BERNARDINO SUNNY     90  48  24 W9        29.92F
RIVERSIDE AP   SUNNY     94  50  22 VRB3      29.91F
MORENO VALLEY    N/A     97  53  22 W3        29.93S HX  95
MARCH ARB      SUNNY     97  50  20 NW8       29.95F
HORSETHIEF CYN   N/A     95  46  18 NW5       29.90F
PERRIS           N/A     96  48  19 W2        29.95S
MENIFEE          N/A     97  50  20 W1        29.98F
HEMET EAST       N/A     92  43  17 SW5       29.90S
FRENCH VALLEY  FAIR      95  50  21 W5        29.94F
TEMECULA         N/A     96  49  20 W7        29.88F

$$

SAN BERNARDINO AND RIVERSIDE COUNTY MOUNTAINS

CITY           SKY/WX    TMP DP  RH WIND       PRES   REMARKS
BIG BEAR AP    SUNNY     77  41  27 SW8G23    30.31F
ANGELUS OAKS     N/A     81  47  30 CALM      29.79F
PINE COVE        N/A     79  44  28 W6        29.89R

$$

SOUTHERN DESERT INCLUDING THE COACHELLA VALLEY

CITY           SKY/WX    TMP DP  RH WIND       PRES   REMARKS
PALM SPRINGS   MOSUNNY  109  48  13 VRB3      29.82F HX 105
THOUSAND PALMS   N/A    108  48  13 SW3       29.77F HX 104
PALM DESERT      N/A    112  53  14 S1          N/A  HX 110
THERMAL        SUNNY    110  46  11 E5        29.74F HX 105
BLYTHE         SUNNY    108  57  18 S8        29.80F HX 108
IMPERIAL AP    SUNNY    109  48  13 SW7       29.77F HX 105
EL CENTRO NAS  SUNNY    108  47  13 S6        29.78F HX 104
YUMA AZ        SUNNY    105  58  21 S5        29.80F HX 105
MEXICALI       SUNNY    108  46  12 W3        29.80  HX 103

$$

UPPER DESERT

CITY           SKY/WX    TMP DP  RH WIND       PRES   REMARKS
VICTORVILLE AP SUNNY     93  39  15 CALM      30.02F
APPLE VALLEY     N/A     95  42  16 NW2       30.03F
PALMDALE       SUNNY     95  36  12 W10G18    30.00F
LANCASTER      SUNNY     96  42  15 W10       29.99F
EDWARDS AFB    MOSUNNY   95  38  14 SW12G17   29.96F
DAGGETT        SUNNY    101  39  12 NW16      29.93F HX  96
29 PALMS N     SUNNY     99  45  15 CALM      30.00F HX  95
NEEDLES        SUNNY    109  51  14 VRB5      29.82F HX 106

$$

REGIONAL REPORTS

CITY           SKY/WX    TMP DP  RH WIND       PRES   REMARKS
SANTA BARBARA  SUNNY     81  67  62 VRB6      29.90S
SANDBERG       SUNNY     83  43  24 N14G20    30.18R
LAS VEGAS NV   MOSUNNY  103  46  14 SE10      29.88F HX  99
PHOENIX AZ     MOSUNNY  104  58  21 S7        29.86F HX 104
TIJUANA        SUNNY     88  61  40 W12       29.93S
ENSENADA NW      N/A     78  32  19 W3        29.88S

$$

OFFSHORE ISLANDS

CITY           SKY/WX    TMP DP  RH WIND       PRES   REMARKS
CATALINA ARPT  SUNNY     86  59  39 W5        30.00S
SAN NICOLAS IS SUNNY    N/A N/A N/A NW22      29.94S

$$

MARINE AND OFFSHORE BUOY REPORTS

STATION/POSITION SKY/WX   TEMP    WIND        PRES    SWELL
                          AIR SEA DIR/SP/G            HT/PER/DIR
                          (F)     (DEG/KT/KT) (MB)    (FT/S/D)
TANNER BANKS               68 70  310/ 17/ 21 1013.8S   3/200/14
S CLEMENTE BASIN           71 73  300/ 12/ 14 1012.7F   5/220/14
SO. S. ROSA ISLA           65 65  320/ 17/ 19 1012.9R   3/14
W. S. BARBARA CH           65 68  310/ 21/ 25 1012.7R   3/270/15
M. S. BARBARA CH           72 72  260/  6/  8 1013.0F
S. MONICA BASIN            73 74  340/  4/  4 1012.9S   3/190/14
S PEDRO CHANNEL               74                N/A     2/180/14
DANA POINT                    76                N/A     3/200/14
OCEANSIDE OFFSHR              77                N/A     3/200/13
TORREY PINES OTR              77                N/A     2/200/13
MISSION BAY BUOY              76                N/A     2/200/13
POINT LOMA SOUTH              74                N/A     3/190/14

$$



USA.gov is the U.S. government's official web portal to all federal, state and local government web resources and services.